Location: La Pernelle
(49.6188°N, 1.2999°W)
Time: 17:21:00
(UTC+00:00)

SL-16 R/B - Pass Details

Date: 28 October 2021
Orbit: 842 x 846 km, 71.0° (Epoch: 28 November)

Event Time Altitude Azimuth Distance (km) Brightness Sun altitude
Rises 18:38:39 0° 232° (SW) 3,394 6.2 -18.2°
Reaches altitude 10° 18:41:14 10° 240° (WSW) 2,463 5.5 -18.6°
Maximum altitude 18:46:32 40° 309° (NW) 1,237 3.5 -19.4°
Drops below altitude 10° 18:51:52 10° 19° (NNE) 2,479 4.5 -20.3°
Enters shadow 18:53:46 - 25° (NNE) 3,155 5.0 -20.6°
